Regional Weather Roundup
Issued by NWS Charleston, SC

Home | Current Version | Previous Version | Text Only | Print | Product List | Glossary On
Versions: 1 2 3 4 5 6 7 8 9 10 11 12 13 14 15 16 17 18 19 20 21 22 23 24 25 26 27 28 29 30 31 32 33 34 35 36 37 38 39 40 41 42 43 44 45 46 47 48 49 50
000
ASUS42 KCHS 090827
RWRCHS

REGIONAL WEATHER ROUNDUP
NATIONAL WEATHER SERVICE CHARLESTON SC
300 AM EST FRI DEC 09 2016

NOTE: "FAIR" INDICATES FEW OR NO CLOUDS BELOW 12,000 FEET WITH NO
SIGNIFICANT WEATHER AND/OR OBSTRUCTIONS TO VISIBILITY.

NOT ALL STATIONS ARE QUALITY CONTROLLED. USE DATA WITH CAUTION...
ESPECIALLY DEWPOINT OBSERVATIONS.

SCZ027-030-031-034>040-042>050-090900-
...SOUTHEAST SOUTH CAROLINA...

CITY           SKY/WX    TMP DP  RH WIND       PRES   REMARKS
N CHARLESTON   CLOUDY    42  29  59 N9        30.27S
WATERFRONT PRK   N/A     47  34  60 N6        30.26S
MOUNT PLEASANT FAIR      45  32  61 N6        30.27R
JOHNS ISLAND   FAIR      45  30  57 NW7       30.27R
PINOPOLIS        N/A     46  30  53 N14       30.20S
MONCKS CORNER  FAIR      45  21  39 N9        30.28R
SUMMERVILLE    FAIR      41  30  65 NW6       30.29S
BEAUFORT MCAS  CLOUDY    45  33  63 N9        30.28S
BEAUFORT ARPT  FAIR      45  32  61 N10       30.28S
HILTON HEAD IS MOCLDY    46  30  53 NW13G20   30.28S
WALTERBORO     MOSUNNY   41  30  65 N3        30.30S
ALLENDALE      FAIR      37  32  81 CALM      30.30R

...SOUTHERN MIDLANDS AND PEE DEE...

CITY           SKY/WX    TMP DP  RH WIND       PRES   REMARKS
GEORGETOWN     NOT AVBL
KINGSTREE      FAIR      37  27  65 NW5       30.29S WCI  34
ORANGEBURG     CLEAR     39  21  48 N5        30.30R WCI  36
BARNWELL       NOT AVBL
AIKEN          FAIR      34  28  80 CALM      30.34R
MANNING        FAIR      36  28  75 N5        30.29S WCI  32
COLUMBIA       PTCLDY    41  18  39 N6        30.31R
SUMTER         PTCLDY    37  22  54 NW3       30.28R
FLORENCE       CLEAR     37  25  61 NW6       30.30R WCI  32
MYRTLE BEACH   MOCLDY    43  25  49 N10       30.29R
N MYRTLE BEACH MOCLDY    39  30  70 N6        30.26R WCI  35

$$

GAZ063-065-086>088-099>101-113>116-118-119-134>141-150-090900-
...SOUTHEAST GEORGIA...

CITY           SKY/WX    TMP DP  RH WIND       PRES   REMARKS
SAVANNAH ARPT  CLOUDY    44  26  49 N10       30.29S
HUNTER AAF     CLOUDY    44  30  58 NW8       30.26S
FORT STEWART   CLOUDY    44  25  48 NW8       30.27S
STATESBORO     CLOUDY    40  29  65 NW8       30.31R WCI  35
SYLVANIA       MOSUNNY  N/A N/A N/A NW5       30.32R
CLAXTON        FAIR      42  29  60 W5        30.32R

...CSRA...CENTRAL AND FAR SOUTHEAST GEORGIA...

CITY           SKY/WX    TMP DP  RH WIND       PRES   REMARKS
THOMSON        MOCLDY    33  31  93 CALM      30.38S
AUGUSTA-BUSH   PTCLDY    41  22  46 NW8       30.31S
AUGUSTA-DANIEL MOCLDY    40  20  44 NW8       30.31S WCI  34
SWAINSBORO     FAIR      36  27  69 NW6       30.33S WCI  31
VIDALIA        PTCLDY    41  30  65 N8        30.33R
EASTMAN        FAIR      39  11  30 CALM      30.37S
HAZLEHURST     FAIR      41  24  50 N8        30.32S
ALMA           MOCLDY    43  22  43 N8        30.31R
WAYCROSS       CLOUDY    46  28  49 N9        30.33R
JESUP          FAIR      45  30  57 N8G16     30.32R
BAXLEY         FAIR      43  28  56 N7        30.32R
BRUNSWICK      CLOUDY    46  32  57 N8        30.30R
SAINT SIMONS   CLOUDY    47  25  42 N9        30.27S

$$

SCZ027-028-034-036>038-045-046-048>050-GAZ119-141-090900-
...LAKE AND SUPPLEMENTAL COASTAL OBSERVATIONS...

STATION/POSITION TIME  TEMP    WIND        PRES    WAVE   SWELL
                       AIR SEA DIR/SP/G            HT/PER HT/PER/DIR
                 (UTC) (F)     (DEG/KT/KT) (MB)    (FT/S) (FT/S/D)
WINYAH BAY       0745   44     340/  6     1025.0R
LAKE MURRAY      0730   38     320/  2/  5 1025.4S
ACE BASIN NERRS  0745   44     340/  4     1025.0S
FORT PULASKI     0800   46 61  340/ 10/ 13 1025.4
SAPELO ISLAND    0800   47     350/ 11     1025.0

$$

ANZ835-935-AMZ111-154-330-350-352-354-370-450-454-472-090900-
...C-MAN AND BUOY OBSERVATIONS...

STATION/POSITION TIME  TEMP    WIND        PRES    WAVE   SWELL
                       AIR SEA DIR/SP/G            HT/PER HT/PER/DIR
                 (UTC) (F)     (DEG/KT/KT) (MB)    (FT/S) (FT/S/D)
BUOY 41004       0750   54 74  360/ 19/ 23 1022.4F   4/ 6
BUOY 41008       0750   52 63  350/ 19/ 25 1023.9R   5/ 5   2/ 80/11
FOLLY BEACH CMAN 0800   48     350/ 10/ 14 1025.3R
CAPERS NEARSHORE 0708   49 61  360/ 16/ 19 1024.3F
FRIPP NEARSHORE  0808   50 61  350/ 16/ 21 1024.7R


STATION/POSITION TIME  TEMP    WIND        PRES    WAVE   SWELL
                       AIR SEA DIR/SP/G            HT/PER HT/PER/DIR
                 (UTC) (F)     (DEG/KT/KT) (MB)    (FT/S) (FT/S/D)
5E ST. MARYS GA  0800      65                N/A     4/ 6   2/ 70/11
FRYING PAN BUOY  0810   52 73  340/ 19/ 25 1023.3
BUOY 41025       0750   49 76  350/ 25/ 29 1021.1R   6/ 5   2/ 70/ 9
CAPE LOOKOUT NC  0800   43     340/ 20/ 24 1023.0R
BUOY 41002       0750   65 74  350/ 21/ 25 1018.2R   7/ 7   2/ 60/10
BUOY 41010       NOT AVBL
ST AUGUSTINE FL  0800   52 66  340/ 17/ 20 1025.2F


$$



USA.gov is the U.S. government's official web portal to all federal, state and local government web resources and services.